Home   Weather   McAlester   Past weeks
Flag for USA

Past Weather in McAlester, Oklahoma, USA — Yesterday and Last 2 Weeks

Now
50 °F

Passing clouds.


Feels Like: 46 °F
Forecast: 62 / 49 °F
Wind: 10 mph from South

Location: McAlester Regional Airport

Current Time: Dec 8, 2019 at 4:30:45 am

Latest Report: Dec 8, 2019 at 3:53 am


Visibility: 10 mi

Pressure: 30.01 "Hg

Humidity: 80%

Dew Point: 44 °F

Location of McAlesterLocation

Past Weather in McAlester — Graph

°F

McAlester Temperature Yesterday

Maximum temperature yesterday: 61 °F (at 3:53 pm)
Minimum temperature yesterday: 29 °F (at 6:53 am)
Average temperature yesterday: 44 °F

High & Low Weather Summary for the Past Weeks

 TemperatureHumidityPressure
High71 °F (Dec 5, 2:53 pm)100% (Nov 29, 1:15 pm)30.41 "Hg (Nov 29, 1:15 pm)
Low29 °F (Dec 7, 6:53 am)17% (Nov 26, 8:53 pm)29.46 "Hg (Nov 26, 2:53 pm)
Average49 °F68%30.03 "Hg
* Reported Nov 23 2:31 am — Dec 8 2:53 am, McAlester. Weather by CustomWeather, © 2019

Note: Actual official high and low records may vary slightly from our data, if they occured in-between our weather recording intervals... More about our weather records

McAlester Weather History for the Previous 24 Hours

Scroll right to see more
 ConditionsComfort  
Time TempWeatherWind HumidityBarometerVisibility
2:53 am
Sun, Dec 8
51 °FClear.7 mph77%30.02 "Hg10 mi
1:53 am50 °FPassing clouds.8 mph80%30.05 "Hg10 mi
12:53 am50 °FClear.7 mph80%30.08 "Hg10 mi
11:53 pm
Sat, Dec 7
50 °FClear.5 mph80%30.10 "Hg10 mi
10:53 pm47 °FClear.No wind80%30.11 "Hg10 mi
9:53 pm48 °FPassing clouds.3 mph80%30.12 "Hg10 mi
8:53 pm50 °FClear.5 mph74%30.14 "Hg10 mi
7:53 pm51 °FPassing clouds.5 mph69%30.16 "Hg10 mi
6:53 pm53 °FPassing clouds.5 mph66%30.17 "Hg10 mi
5:53 pm53 °FPassing clouds.3 mph61%30.17 "Hg10 mi
4:53 pm59 °FSunny.5 mph51%30.17 "Hg10 mi
3:53 pm61 °FSunny.3 mph46%30.18 "Hg10 mi
2:53 pm60 °FScattered clouds.7 mph46%30.20 "Hg10 mi
1:53 pm59 °FScattered clouds.5 mph49%30.23 "Hg10 mi
12:53 pm55 °FSunny.3 mph55%30.27 "Hg10 mi
11:53 am51 °FSunny.3 mph59%30.31 "Hg10 mi
10:53 am48 °FPassing clouds.No wind63%30.34 "Hg10 mi
9:53 am43 °FPassing clouds.No wind74%30.34 "Hg10 mi
8:53 am38 °FSunny.No wind86%30.34 "Hg7 mi
7:53 am30 °FIce fog.No wind96%30.35 "Hg4 mi
7:33 am30 °FIce fog.3 mph89%30.34 "Hg3 mi
7:23 am29 °FIce fog.No wind93%30.34 "Hg2 mi
6:53 am29 °FIce fog.No wind93%30.35 "Hg4 mi
5:53 am30 °FIce fog.No wind92%30.33 "Hg4 mi
4:53 am34 °FPassing clouds.3 mph88%30.32 "Hg8 mi
Weather by CustomWeather, © 2019

See weather overview

Advertising